Regional Weather Roundup
Issued by NWS

Home | Current Version | Previous Version | Graphics & Text | Print | Product List | Glossary On
Versions: 1 2 3 4 5 6 7 8 9 10 11 12 13 14 15 16 17 18 19 20 21 22 23 24 25 26 27
000
ASUS45 KCYS 260610
RWRWY

WYOMING REGIONAL WEATHER ROUNDUP
NATIONAL WEATHER SERVICE CHEYENNE WY
1200 AM MDT FRI AUG 26 2016

NOTE:  "FAIR" INDICATES FEW OR NO CLOUDS BELOW 12,000 FEET
WITH NO SIGNIFICANT WEATHER AND/OR OBSTRUCTIONS TO VISIBILITY.

WYZ001-260700-
YELLOWSTONE NATIONAL PARK

CITY           SKY/WX    TMP DP  RH WIND       PRES   REMARKS
LK YELLOWSTONE   N/A     46  36  68 CALM      30.30R
6HR MIN TEMP:  45; 6HR MAX TEMP:  61;

W YELLOWSTONE  NOT AVBL

$$
WYZ002>013-054>058-071-098>099-260700-
NORTHERN WYOMING

CITY           SKY/WX    TMP DP  RH WIND       PRES   REMARKS
JACKSON        FAIR      43  34  70 N9        30.20S
CODY           FAIR      52  41  66 N3        30.19S
GREYBULL       CLOUDY    61  37  41 SE5       30.13S
6HR MIN TEMP:  59; 6HR MAX TEMP:  70;

WORLAND        FAIR      51  48  89 SW5       30.14F
6HR MIN TEMP:  51; 6HR MAX TEMP:  68; 6HR PCP: TRACE;

SHERIDAN       FAIR      54  45  71 CALM      30.15F
6HR MIN TEMP:  51; 6HR MAX TEMP:  68;

BUFFALO        FAIR      55  42  61 SE6       30.20F
6HR MIN TEMP:  54; 6HR MAX TEMP:  62;

GILLETTE       FAIR      54  44  69 S9        30.18F
6HR MIN TEMP:  50; 6HR MAX TEMP:  66;

HULETT         FAIR      52  41  66 SE6       30.22R
NEWCASTLE      FAIR      54  43  66 SE8       30.23R

$$
WYZ014>020-022>026-101>103-260700-
CENTRAL WYOMING

CITY           SKY/WX    TMP DP  RH WIND       PRES   REMARKS
BIG PINEY      FAIR      37  34  89 NW8       30.26S WCI  31
6HR MIN TEMP:  36; 6HR MAX TEMP:  55;

PINEDALE       FAIR      36  32  87 NW6       30.27R WCI  31
DUBOIS         FAIR      43  34  70 W3        30.26S
LANDER         FAIR      52  45  77 SW9       30.20S
6HR MIN TEMP:  51; 6HR MAX TEMP:  66; 6HR PCP:  0.01;

RIVERTON       MOCLDY    51  48  89 N7        30.20S
6HR MIN TEMP:  51; 6HR MAX TEMP:  62; 6HR PCP: TRACE;

CASPER         LGT RAIN  51  48  89 SE21      30.19F
6HR MIN TEMP:  51; 6HR MAX TEMP:  62; 6HR PCP:  0.33;

DOUGLAS        CLOUDY    53  47  79 NW5       30.24R
6HR MIN TEMP:  52; 6HR MAX TEMP:  64;


$$
WYZ021-027>030-104>119-260700-
SOUTHERN WYOMING

CITY           SKY/WX    TMP DP  RH WIND       PRES   REMARKS
EVANSTON       FAIR      51  28  41 E14       30.22S
6HR MIN TEMP:  51; 6HR MAX TEMP:  71;

FORT BRIDGER   FAIR      50  34  53 E8        30.26R
ROCK SPRINGS   FAIR      50  35  56 E5        30.24F
6HR MIN TEMP:  49; 6HR MAX TEMP:  66; 6HR PCP: TRACE;

DIXON          FAIR      55  34  45 CALM      30.25S
RAWLINS        FAIR      49  37  63 NW5       30.28R
6HR MIN TEMP:  49; 6HR MAX TEMP:  66; 6HR PCP: TRACE;

SARATOGA       MOCLDY    48  41  76 W10       30.26R
LARAMIE        FAIR      50  42  74 SE9       30.26S
6HR MIN TEMP:  49; 6HR MAX TEMP:  62;

CHEYENNE       MOCLDY    54  45  71 S6        30.24F
6HR MIN TEMP:  54; 6HR MAX TEMP:  67;

TORRINGTON     FAIR      55  46  71 E13       30.17F
6HR MIN TEMP:  54; 6HR MAX TEMP:  69;

PINE BLUFFS    FAIR      50  43  76 S7        30.23S

$$




USA.gov is the U.S. government's official web portal to all federal, state and local government web resources and services.